Location: Feigenhofen
(48.4939°N, 10.7793°E)
Time: 22:58:22
(UTC+00:00)

Cosmos 2237 Rocket - Pass Details

Date: 26 May 2022
Orbit: 833 x 851 km, 71.0° (Epoch: 24 June)

Event Time Altitude Azimuth Distance (km) Brightness Sun altitude
Exits shadow 01:11:41 20° 237° (WSW) 1,871 3.5 -15.6°
Maximum altitude 01:15:27 49° 305° (NW) 1,084 2.8 -15.3°
Drops below altitude 10° 01:21:00 10° 20° (NNE) 2,488 6.0 -14.8°
Sets 01:23:33 0° 26° (NNE) 3,428 7.3 -14.6°
